Theta_e
318 318 318 317 318 318 317 317 317 316 316 315 315 315 315 314 315 315 314 314 314 314 315 315 317 319 313 306 306 316 328 325 320 315 309 306 304 301 298 298 298 296 298 300 301 301 301
318 317 317 317 317 317 317 317 317 316 316 315 315 314 314 314 315 315 315 315 314 314 314 316 318 318 309 302 313 318 320 317 315 312 310 308 305 304 299 299 297 299 298 299 300 301 300
317 318 318 318 318 317 317 317 317 317 316 315 315 314 314 314 314 315 315 315 314 314 315 317 319 314 308 307 316 316 318 315 315 313 308 309 308 304 303 300 299 299 295 299 299 297 297
317 317 318 318 318 317 317 317 317 317 316 315 315 314 314 314 314 314 315 314 314 314 315 317 319 312 305 314 317 315 316 315 316 315 312 313 310 304 301 301 300 297 295 292 297 299 301
318 319 319 318 318 317 317 317 316 317 316 316 315 314 313 313 314 314 314 313 314 314 316 317 313 310 303 317 310 314 316 312 311 311 311 311 306 302 300 297 296 295 291 293 295 300 299
318 319 319 318 318 317 316 316 316 316 316 316 315 313 313 313 313 313 313 313 315 314 315 316 313 303 307 304 310 312 313 313 309 308 307 305 303 300 299 297 288 291 292 294 294 299 300
318 319 319 318 318 317 316 316 316 316 316 316 315 313 313 313 313 312 310 312 309 308 310 304 304 303 305 310 313 309 311 309 307 306 300 303 298 295 297 299 298 296 294 293 297 301 298
318 318 318 318 318 317 316 316 316 316 316 315 314 313 313 313 312 312 309 309 309 310 304 308 307 307 307 309 304 307 314 306 304 299 301 299 295 299 300 299 297 295 293 294 298 300 299
317 317 317 317 317 316 316 316 316 315 315 314 313 313 313 312 311 309 309 309 312 312 304 303 306 302 303 304 301 302 308 306 302 299 299 296 298 301 298 296 295 296 294 294 294 298 300
317 317 317 316 315 316 316 316 315 315 315 314 313 312 312 311 307 307 305 309 309 312 296 295 299 302 304 304 299 307 310 307 303 298 299 298 300 297 295 295 296 293 298 297 295 294 289
317 317 317 316 316 315 315 315 315 315 314 313 313 312 312 309 308 306 306 310 309 311 285 297 299 307 304 300 300 301 308 306 299 298 298 294 295 295 294 296 298 295 299 297 296 293 291
317 317 316 316 316 315 315 314 314 314 313 313 312 312 310 309 308 309 310 311 308 293 284 294 299 297 297 299 299 301 301 306 303 297 297 296 301 297 297 299 299 300 298 298 296 293 285
316 316 316 316 315 315 314 314 314 314 313 313 311 310 310 309 306 309 309 309 294 288 295 292 293 297 295 295 295 297 295 296 294 290 291 294 295 298 299 296 300 299 296 287 287 286 286
316 315 315 315 315 314 313 313 313 313 312 311 308 308 310 311 309 308 305 299 288 290 292 297 296 295 292 295 295 295 294 293 297 295 291 288 288 295 299 296 294 295 295 286 281 284 287
314 314 315 315 313 313 313 312 312 312 311 309 306 309 312 311 308 306 304 292 290 292 295 294 294 290 291 294 293 293 292 292 297 297 290 289 289 298 299 300 299 297 293 297 286 289 285
313 313 313 313 313 312 312 312 312 312 310 307 304 305 309 309 308 309 300 292 294 297 298 296 289 291 288 291 291 292 291 295 296 299 299 294 286 296 298 300 301 298 299 289 288 283 283
312 312 312 312 311 311 311 311 312 311 309 305 306 303 309 308 310 303 293 293 295 300 299 295 292 290 292 290 291 291 291 295 299 298 298 296 292 292 297 294 293 295 292 293 292 289 284
312 312 311 311 310 310 310 311 312 311 307 303 303 299 308 309 300 295 295 294 297 298 299 296 296 294 292 292 290 291 291 294 300 298 294 298 295 289 292 299 299 298 294 294 287 288 288
311 310 310 310 310 309 310 311 312 311 307 303 300 300 309 310 294 294 296 295 297 296 296 295 293 296 295 292 288 293 294 299 300 297 295 298 294 288 290 295 299 295 297 297 297 295 288
311 310 310 309 309 309 308 310 311 311 308 303 300 296 300 300 297 294 292 293 293 298 296 296 294 295 295 292 294 292 293 297 299 297 301 302 295 291 285 289 294 293 295 297 296 289 289
309 308 308 308 308 307 307 308 310 310 308 303 299 294 294 293 295 294 294 293 292 292 296 297 294 294 293 289 290 291 294 295 295 299 302 300 293 294 295 296 296 294 294 295 294 293 288
307 307 306 306 306 306 306 307 309 310 307 302 297 296 298 296 295 293 293 292 291 293 293 293 292 294 294 290 291 290 293 292 290 297 298 299 292 295 293 296 295 293 296 296 296 294 293
304 305 305 305 305 305 305 306 308 309 307 304 298 299 298 294 293 293 293 293 293 295 297 297 296 294 292 294 297 297 297 296 295 294 293 294 294 292 288 294 293 290 295 296 297 297 294
303 304 304 304 304 304 304 305 306 308 308 302 301 300 297 293 294 294 294 295 294 295 294 297 298 294 298 302 300 301 298 297 296 296 296 295 295 293 290 292 285 295 302 300 298 298 298
303 303 304 304 304 304 304 304 305 307 310 305 304 299 296 292 295 295 294 295 297 297 295 296 298 301 301 298 295 294 296 295 297 299 298 297 296 291 288 287 292 295 298 298 296 296 301
302 302 303 303 303 303 303 303 304 305 308 307 305 305 299 294 295 297 295 296 294 295 294 296 302 302 300 297 294 288 287 290 290 293 299 298 298 292 291 286 283 293 300 304 304 294 302
301 301 302 303 303 302 303 303 303 304 306 307 307 307 302 295 300 298 296 296 298 294 292 294 297 298 299 294 290 289 289 292 288 288 290 291 293 290 289 288 293 300 303 305 290 293 304
301 301 302 303 302 302 303 304 304 304 305 306 306 307 302 298 300 301 301 298 297 295 293 297 295 293 295 291 291 289 289 292 289 292 289 289 288 290 292 287 285 302 301 294 302 307 306
301 300 301 302 301 301 302 303 305 305 305 306 300 308 307 299 299 305 305 306 304 304 299 296 295 294 296 294 292 290 288 290 290 286 295 290 296 293 294 294 303 304 305 308 309 307 307
Wind_Speed
22 22 23 23 23 22 21 21 20 19 18 18 17 15 13 12 11 10 10 9 8 8 9 10 12 12 3 3 4 3 8 5 2 2 4 4 4 1 7 3 4 6 4 5 11 17 20
22 22 22 22 22 22 22 22 21 21 19 18 17 16 14 12 11 11 10 9 8 8 8 9 12 11 1 6 1 0 6 3 1 2 4 3 4 3 3 5 3 3 11 17 14 19 11
22 22 21 21 21 22 22 22 22 22 20 19 18 17 15 12 11 11 10 9 7 7 7 8 10 3 1 4 0 1 3 2 3 3 4 3 3 4 3 7 1 8 14 14 11 2 6
21 19 19 21 21 22 22 22 23 22 21 19 18 16 15 13 11 10 10 9 6 6 6 6 8 2 2 2 3 6 4 5 6 5 5 9 6 4 4 3 5 9 4 7 2 10 9
18 19 20 20 20 21 22 22 22 23 22 20 18 16 15 12 11 11 9 5 3 4 4 6 2 4 5 5 8 4 3 4 2 2 4 4 2 2 2 7 8 2 11 20 16 4 9
19 19 20 20 20 20 21 23 22 22 22 22 19 16 14 12 9 7 7 2 3 1 2 2 2 2 7 11 10 4 0 2 3 3 2 1 0 4 2 7 9 17 20 19 20 8 18
19 19 20 21 22 21 21 22 24 24 23 22 20 17 13 11 8 3 1 2 1 1 3 4 2 1 8 13 1 9 1 1 1 1 5 1 6 11 12 9 13 14 16 21 25 24 22
18 19 20 21 22 23 23 23 24 26 24 23 21 17 14 11 6 5 2 3 2 2 4 1 2 5 4 4 4 9 5 4 2 9 3 5 11 6 9 8 13 15 18 21 17 12 18
17 19 20 21 22 22 23 24 24 25 26 25 23 18 13 9 5 2 2 2 4 1 2 3 2 3 6 5 3 11 8 3 4 5 10 10 12 9 7 15 12 12 12 15 23 24 20
17 18 19 20 21 22 24 25 25 26 26 26 24 20 13 8 1 2 1 1 6 2 1 6 4 3 7 11 3 12 6 3 2 6 8 6 2 7 10 11 6 13 5 18 24 20 12
16 17 19 19 20 21 23 25 26 27 27 28 24 20 12 2 0 1 3 7 1 3 1 10 3 2 8 10 9 8 4 1 5 8 3 6 12 9 9 5 3 10 17 22 24 20 15
16 17 17 18 20 21 23 24 26 28 28 29 28 19 8 1 1 1 6 2 1 1 1 5 4 9 10 5 9 7 6 4 2 4 3 14 8 5 4 8 13 18 16 22 3 1 5
15 16 17 18 19 21 22 24 25 27 30 32 30 20 2 1 5 6 1 2 1 3 2 6 7 8 8 12 7 10 6 8 9 9 17 13 4 3 2 15 7 11 13 6 3 3 7
15 16 17 18 20 21 22 24 25 26 29 32 31 14 3 2 6 1 2 1 2 2 3 3 6 6 5 12 6 12 9 7 3 3 9 8 5 3 3 8 10 15 5 2 8 10 18
17 17 19 20 21 22 24 26 26 27 30 31 21 4 1 7 4 3 2 4 2 1 3 5 8 3 4 8 5 8 5 4 3 3 9 7 7 6 13 14 5 5 11 12 7 7 7
17 18 19 20 21 22 23 26 26 28 30 27 6 4 3 14 3 2 4 2 1 2 4 1 2 1 6 10 10 12 4 2 4 1 1 2 9 6 13 6 4 7 11 4 2 8 9
16 17 18 19 20 22 23 24 27 27 29 23 3 4 4 13 2 6 4 0 3 2 4 2 2 5 5 5 12 5 4 5 1 5 3 3 4 10 12 4 13 5 5 4 4 4 6
15 16 16 18 19 20 22 24 26 26 27 9 4 4 6 7 5 2 2 3 4 5 4 3 3 3 3 7 7 7 5 3 3 1 11 2 4 8 16 13 1 4 6 9 4 7 4
13 14 15 16 18 19 20 20 22 21 18 5 6 4 4 4 4 3 3 2 2 7 5 4 4 2 5 7 6 7 6 2 7 10 5 1 2 9 8 5 9 18 12 10 13 5 4
9 10 12 15 17 18 20 20 20 21 17 2 4 4 4 5 3 2 3 3 5 7 4 6 4 2 12 10 4 8 12 6 14 16 13 4 4 7 7 14 18 13 18 13 11 3 11
11 12 12 14 15 17 19 20 20 20 17 2 5 3 2 4 4 4 1 2 5 7 4 5 1 4 10 6 14 5 2 13 12 6 3 3 8 13 16 18 18 14 10 14 13 7 5
13 13 14 14 15 16 17 18 19 20 16 4 4 4 3 2 4 4 2 3 3 5 3 2 6 13 11 8 9 19 12 14 9 4 3 2 7 11 18 10 9 2 11 16 9 5 10
13 14 13 14 14 15 16 16 16 18 11 2 2 1 2 2 4 3 2 6 4 9 4 9 12 13 12 10 10 19 20 19 17 12 9 6 4 7 7 14 12 6 10 15 11 3 12
12 12 13 13 12 12 14 14 14 13 7 1 2 2 2 3 3 4 7 10 8 8 11 9 11 5 7 18 20 11 8 9 11 13 13 6 6 2 8 11 2 3 8 11 11 2 11
12 12 12 11 12 13 12 13 13 11 12 1 1 1 2 4 4 10 1 6 9 7 5 7 6 9 12 8 6 6 2 2 2 1 8 13 4 5 4 6 10 3 12 9 7 3 16
11 12 12 12 11 12 12 12 11 10 10 1 1 2 1 3 3 3 8 8 6 6 4 5 10 8 4 2 3 4 3 4 4 5 5 5 9 4 5 5 4 2 12 13 5 3 17
12 12 12 11 11 11 11 11 10 10 10 3 2 2 2 3 5 3 5 4 3 1 4 3 7 6 4 4 3 2 3 4 3 5 3 6 4 8 6 6 4 4 12 12 5 9 16
11 11 11 11 11 11 10 11 8 8 9 4 2 4 2 4 10 14 13 13 6 3 5 4 6 3 3 3 3 2 2 2 4 4 8 5 4 3 2 4 5 2 5 7 8 11 12
11 12 12 11 11 11 11 10 10 7 7 5 3 2 3 3 6 4 14 16 19 20 10 3 3 3 3 2 1 1 3 3 4 5 2 4 5 4 5 4 6 9 7 7 8 10 11
Wind_Direction
19 15 13 7 2 359 359 357 356 358 359 358 357 355 354 351 345 337 327 320 322 332 336 332 329 326 200 62 73 75 137 124 120 327 8 0 15 45 354 302 288 249 252 256 271 279 274
19 16 13 2 359 358 357 355 354 355 356 355 353 352 352 348 342 337 327 321 320 327 334 335 334 325 264 67 190 256 152 154 238 333 337 326 339 329 271 290 274 290 281 287 278 272 270
18 16 7 357 357 357 357 354 353 353 355 353 352 348 347 347 341 333 330 324 316 320 327 337 343 349 41 38 273 313 200 225 184 192 293 294 298 271 320 292 294 280 293 308 281 298 254
22 15 3 360 359 356 355 353 352 352 354 352 351 344 344 345 340 330 325 320 312 311 318 331 337 316 291 158 213 258 200 251 222 226 243 277 258 259 249 309 268 295 286 323 6 286 309
9 4 2 0 359 356 352 353 353 351 353 353 350 344 338 343 343 332 324 305 292 279 291 318 346 345 34 318 327 6 209 266 201 185 198 221 185 296 260 317 306 17 308 313 314 295 289
8 3 2 0 360 356 353 350 352 353 352 353 351 346 335 336 345 345 355 109 148 221 242 230 201 271 345 340 337 327 64 255 288 326 337 153 154 260 237 323 319 307 304 301 293 286 285
2 2 1 360 358 356 355 353 350 353 353 352 350 349 337 330 335 335 244 221 289 126 31 56 338 95 296 326 338 10 349 249 66 22 308 8 283 300 313 311 290 294 291 291 291 295 290
360 359 359 358 358 356 354 354 352 351 352 351 348 348 344 336 333 138 188 52 83 22 307 197 256 274 278 300 302 357 333 294 335 305 285 279 293 347 314 296 295 287 287 286 290 292 299
359 356 356 356 354 354 353 353 352 352 349 351 348 345 344 348 115 164 360 77 23 174 295 310 267 296 339 330 314 341 348 338 293 299 318 291 292 320 326 307 298 289 272 285 294 307 287
357 354 355 352 351 352 351 351 350 351 348 348 348 343 341 329 212 336 356 50 357 236 355 350 356 41 345 339 350 333 5 297 305 311 322 307 295 310 315 293 264 305 311 299 296 308 306
356 354 354 350 350 351 349 348 348 349 347 343 348 345 344 324 38 284 359 318 194 205 285 332 318 11 345 24 309 343 13 315 294 307 310 304 300 309 296 261 259 279 311 291 292 290 301
355 354 350 350 351 349 349 347 346 345 346 342 340 343 338 156 171 298 335 133 182 220 349 339 325 343 350 343 342 317 351 18 294 301 258 289 294 265 266 297 288 295 301 302 15 291 254
351 350 351 349 350 347 346 346 345 344 342 338 334 333 271 288 329 331 284 147 282 62 354 340 330 342 343 337 331 349 341 17 27 350 349 318 298 270 273 315 322 318 354 310 306 245 296
352 352 350 349 351 349 348 344 344 344 341 336 330 321 194 234 326 180 155 102 42 4 315 324 331 326 340 357 339 340 346 13 72 3 315 342 329 341 35 336 304 323 339 303 308 311 304
355 356 353 352 352 352 350 347 346 346 341 339 322 327 342 343 344 178 102 57 67 283 298 318 321 352 341 344 326 338 340 317 346 11 1 323 276 296 309 312 279 16 326 325 267 250 275
353 354 352 351 352 352 352 349 349 349 342 341 334 321 318 337 344 83 72 104 277 265 318 331 305 326 322 343 338 339 317 340 331 327 286 302 289 321 329 312 151 301 318 290 256 306 308
349 350 352 352 353 352 352 351 349 352 344 330 356 340 342 340 341 51 83 294 295 345 351 297 271 291 270 331 327 311 283 304 265 338 271 281 234 306 309 334 333 355 321 301 258 255 284
345 348 353 355 356 355 355 353 351 354 347 34 343 310 355 338 51 27 67 329 323 343 360 350 301 267 326 337 314 291 252 286 214 322 315 239 289 292 308 319 108 339 317 310 285 317 292
338 346 350 353 354 355 354 351 349 351 10 323 338 295 337 346 65 34 338 13 349 359 333 20 297 6 24 330 309 255 265 255 316 337 296 171 246 307 335 186 310 332 325 311 323 301 290
340 346 352 351 353 353 352 346 344 345 1 339 333 334 5 47 27 28 5 24 353 342 315 346 282 96 355 315 261 283 287 303 331 308 275 212 257 259 282 281 299 307 315 326 336 297 313
344 347 352 351 352 352 351 349 345 344 352 327 6 49 16 350 25 1 291 14 357 10 332 316 229 27 345 289 304 248 271 314 317 327 121 235 277 293 282 285 293 304 334 335 325 3 329
339 342 346 348 350 351 351 350 348 345 343 80 4 350 1 333 310 311 349 23 6 337 284 302 305 319 311 260 259 291 302 306 285 312 320 235 280 307 305 298 325 221 343 345 351 349 335
334 332 341 343 345 348 348 348 353 352 340 54 105 138 283 28 349 316 32 11 324 341 260 261 307 315 304 299 279 281 279 270 254 270 299 282 275 319 288 318 311 211 346 337 322 43 343
326 329 330 334 341 345 345 347 348 355 9 343 44 315 306 305 312 312 308 314 307 306 287 290 298 266 306 314 298 266 244 243 238 244 226 267 290 284 291 327 267 16 332 329 318 304 357
319 324 324 336 341 339 342 343 345 345 357 320 55 330 291 290 265 294 175 291 307 303 268 278 288 301 320 303 316 328 357 192 105 155 202 218 279 292 288 311 288 332 344 346 332 284 13
311 312 318 325 328 336 337 338 340 338 348 316 268 159 118 293 239 237 313 298 311 331 295 251 307 316 310 313 337 352 334 330 322 339 139 178 244 255 296 300 284 40 339 340 285 243 5
300 310 313 316 320 328 332 331 333 333 329 328 274 207 149 261 270 227 231 302 312 276 271 295 339 308 320 353 3 352 313 326 304 300 329 296 272 254 277 264 273 320 332 316 324 337 341
293 302 303 312 313 315 324 325 323 323 323 325 295 197 211 229 270 265 264 271 258 232 263 351 321 188 288 2 335 8 263 334 285 281 291 286 303 278 252 258 281 38 335 358 318 307 328
288 293 295 300 308 308 318 318 321 309 302 320 278 180 210 244 282 307 272 259 248 250 272 194 261 315 298 277 221 286 257 244 274 284 190 257 232 298 265 273 319 297 272 294 283 287 313